{"data":{"norad_id":65689,"epoch":"2026-09-20T23:12:24.626016Z","epoch_age_seconds":68237,"freshness":"FRESH","line1":"1 65689U 25212P   26263.96695169  .00020188  00000+0  60685-3 0  9992","line2":"2 65689  53.1633 155.6404 0000736  26.8773 333.2268 15.34407978 57187","mean_motion":15.34407978,"eccentricity":7.36e-5,"inclination_deg":53.1633,"raan_deg":155.6404,"arg_perigee_deg":26.8773,"mean_anomaly_deg":333.2268,"bstar":0.00060685,"rev_number":5718,"period_min":93.847270129353,"perigee_km":462.1760439161,"apogee_km":463.18301210902,"semimajor_km":6840.8165280126,"source":"CELESTRAK","updated_at":"2026-09-21T09:00:35.687689Z"}}